Elwood, KS

5:19 AM CST on February 26, 2017 (GMT -0600)
Rosecrans Memorial

Weather History for KSTJ - December, 2014

Change the Weather History Date:

Thursday, December 18, 2014

  Actual Average Record
Temperature  
Mean Temperature 30 °F 28 °F  
Max Temperature 32 °F 38 °F 64 °F (1976)
Min Temperature 28 °F 19 °F -19 °F (1983)
Degree Days  
Heating Degree Days 35 37  
Month to date heating degree days 530 611  
Since 1 July heating degree days 1776 1722  
Cooling Degree Days 0 0  
Month to date cooling degree days 0 0  
Year to date cooling degree days 1182 1221  
Moisture  
Dew Point 26 °F    
Average Humidity 81    
Maximum Humidity 92    
Minimum Humidity 69    
Precipitation  
Precipitation 0.12 in 0.05 in 1.32 in (1968)
Month to date precipitation 0.66 0.91  
Year to date precipitation 31.61 34.99  
Sea Level Pressure  
Sea Level Pressure 30.26 in    
Wind  
Wind Speed 4 mph (East)    
Max Wind Speed 8 mph    
Max Gust Speed 9 mph    
Visibility 4 miles    
Events Fog , Snow    
T = Trace of Precipitation, MM = Missing Value Source: NWS Daily Summary

Daily Weather History Graph

Daily Weather History Graph

Search for Another Location

Airport or City:

Trip Planner

Search our weather history database for the weather conditions in past years. The results will help you decide how hot, cold, wet, or windy it might be!

Date:

Astronomy

Dec. 18, 2014 Rise Set
Actual Time 7:35 AM CST 4:57 PM CST
Civil Twilight 7:05 AM CST 5:27 PM CST
Nautical Twilight 6:31 AM CST 6:01 PM CST
Astronomical Twilight 5:58 AM CST 6:34 PM CST
Moon 3:50 AM CST (12/18) 2:37 PM CST (12/18)
Length of Visible Light 10h 22m
Length of Day
9h 21m
Waning Crescent, 13% of the Moon is Illuminated
Dec 18
Waning Crescent
Dec 21
New
Dec 28
First Quarter
Jan 4
Full
Jan 13
Last Quarter

Hourly Weather History & Observations

Time (CST) Temp. Windchill Dew Point Humidity Pressure Visibility Wind Dir Wind Speed Gust Speed Precip Events Conditions
12:53 AM 28.9 °F 25.2 °F 21.9 °F 75% 30.30 in 8.0 mi East 3.5 mph - 0.00 in Snow Light Snow
1:17 AM 28.9 °F 23.9 °F 24.1 °F 82% 30.25 in 2.0 mi East 4.6 mph - 0.00 in Snow Light Snow
1:30 AM 28.9 °F 25.2 °F 24.1 °F 82% 30.25 in 5.0 mi East 3.5 mph - 0.00 in Snow Light Snow
1:53 AM 28.9 °F 23.9 °F 24.1 °F 82% 30.28 in 9.0 mi East 4.6 mph - 0.00 in   Overcast
2:27 AM 28.9 °F 23.9 °F 23.0 °F 78% 30.25 in 2.5 mi ESE 4.6 mph - 0.00 in Snow Light Snow
2:36 AM 28.0 °F 24.2 °F 24.1 °F 85% 30.25 in 1.0 mi ESE 3.5 mph - 0.00 in Snow Light Snow
2:41 AM 28.0 °F 22.8 °F 25.0 °F 88% 30.25 in 0.8 mi East 4.6 mph - 0.01 in Snow Light Snow
2:49 AM 28.4 °F 24.6 °F 26.6 °F 93% 30.25 in 0.5 mi East 3.5 mph - 0.02 in Fog , Snow Snow
2:53 AM 28.0 °F 24.2 °F 26.1 °F 92% 30.28 in 0.5 mi East 3.5 mph - 0.02 in Fog , Snow Snow
3:02 AM 28.0 °F 24.2 °F 26.1 °F 92% 30.25 in 0.8 mi East 3.5 mph - 0.01 in Snow Light Snow
3:11 AM 28.0 °F 24.2 °F 26.1 °F 92% 30.25 in 1.2 mi East 3.5 mph - 0.01 in Snow Light Snow
3:26 AM 28.0 °F 22.8 °F 26.1 °F 92% 30.25 in 1.8 mi East 4.6 mph - 0.02 in Snow Light Snow
3:46 AM 28.0 °F 22.8 °F 26.1 °F 92% 30.24 in 2.5 mi East 4.6 mph - 0.02 in Snow Light Snow
3:53 AM 28.0 °F 22.8 °F 26.1 °F 92% 30.27 in 2.5 mi East 4.6 mph - 0.02 in Snow Light Snow
4:02 AM 28.0 °F 24.2 °F 26.1 °F 92% 30.24 in 3.0 mi East 3.5 mph - 0.01 in Snow Light Snow
4:10 AM 28.0 °F 22.8 °F 26.1 °F 92% 30.24 in 2.0 mi East 4.6 mph - 0.01 in Snow Light Snow
4:23 AM 28.0 °F 22.8 °F 26.1 °F 92% 30.24 in 1.8 mi East 4.6 mph - 0.01 in Snow Light Snow
4:53 AM 28.0 °F 24.2 °F 26.1 °F 92% 30.26 in 1.5 mi East 3.5 mph - 0.03 in Snow Light Snow
5:02 AM 28.0 °F 22.8 °F 26.1 °F 92% 30.23 in 2.0 mi ESE 4.6 mph - 0.00 in Snow Light Snow
5:10 AM 28.0 °F 24.2 °F 26.1 °F 92% 30.23 in 3.0 mi ESE 3.5 mph - 0.00 in Snow Light Snow
5:21 AM 28.0 °F 24.2 °F 26.1 °F 92% 30.23 in 2.0 mi East 3.5 mph - 0.00 in Snow Light Snow
5:45 AM 28.0 °F 21.7 °F 26.1 °F 92% 30.23 in 3.0 mi East 5.8 mph - 0.00 in Snow Light Snow
5:53 AM 28.0 °F 22.8 °F 26.1 °F 92% 30.26 in 3.0 mi East 4.6 mph - 0.01 in Snow Light Snow
6:00 AM 28.0 °F 21.7 °F 26.1 °F 92% 30.23 in 2.0 mi East 5.8 mph - 0.00 in Snow Light Snow
6:16 AM 28.0 °F 21.7 °F 26.1 °F 92% 30.23 in 3.0 mi East 5.8 mph - 0.00 in Snow Light Snow
6:22 AM 28.0 °F 21.7 °F 26.1 °F 92% 30.23 in 2.5 mi East 5.8 mph - 0.00 in Snow Light Snow
6:35 AM 28.0 °F 21.7 °F 26.1 °F 92% 30.24 in 1.2 mi ENE 5.8 mph - 0.00 in Snow Light Snow
6:53 AM 28.0 °F 21.7 °F 26.1 °F 92% 30.27 in 1.0 mi ENE 5.8 mph - 0.01 in Snow Light Snow
7:02 AM 28.0 °F 20.8 °F 26.1 °F 92% 30.24 in 1.2 mi ENE 6.9 mph - 0.00 in Snow Light Snow
7:25 AM 28.0 °F 21.7 °F 26.1 °F 92% 30.24 in 1.2 mi ENE 5.8 mph - 0.01 in Snow Light Snow
7:33 AM 28.0 °F 21.7 °F 26.1 °F 92% 30.24 in 1.5 mi ENE 5.8 mph - 0.02 in Snow Light Snow
7:53 AM 28.0 °F 22.8 °F 26.1 °F 92% 30.28 in 1.2 mi ENE 4.6 mph - 0.02 in Snow Light Snow
8:33 AM 28.0 °F 22.8 °F 26.1 °F 92% 30.25 in 0.8 mi ENE 4.6 mph - 0.01 in Snow Light Snow
8:41 AM 28.0 °F 24.2 °F 26.1 °F 92% 30.25 in 1.5 mi East 3.5 mph - 0.01 in Snow Light Snow
8:51 AM 28.4 °F 23.3 °F 26.6 °F 93% 30.25 in 2.0 mi ENE 4.6 mph - 0.01 in Snow Light Snow
8:52 AM 28.0 °F 22.8 °F 26.1 °F 92% 30.29 in 1.8 mi East 4.6 mph - 0.01 in Snow Light Snow
9:09 AM 28.0 °F 20.8 °F 26.1 °F 92% 30.26 in 2.0 mi East 6.9 mph - 0.00 in Snow Light Snow
9:20 AM 28.0 °F 22.8 °F 26.1 °F 92% 30.26 in 1.8 mi East 4.6 mph - 0.00 in Snow Light Snow
9:43 AM 28.9 °F 22.8 °F 26.1 °F 89% 30.27 in 2.0 mi East 5.8 mph - 0.00 in Snow Light Snow
9:53 AM 28.9 °F 22.8 °F 26.1 °F 89% 30.30 in 1.8 mi East 5.8 mph - 0.00 in Snow Light Snow
10:03 AM 28.9 °F 22.8 °F 26.1 °F 89% 30.27 in 1.5 mi East 5.8 mph - 0.00 in Snow Light Snow
10:21 AM 28.9 °F 22.8 °F 26.1 °F 89% 30.27 in 2.5 mi East 5.8 mph - 0.00 in Snow Light Snow
10:31 AM 28.9 °F 22.8 °F 26.1 °F 89% 30.27 in 3.0 mi East 5.8 mph - 0.00 in Snow Light Snow
10:44 AM 28.9 °F 23.9 °F 26.1 °F 89% 30.27 in 2.5 mi East 4.6 mph - 0.00 in Snow Light Snow
10:51 AM 28.4 °F 22.2 °F 26.6 °F 93% 30.27 in 4.0 mi East 5.8 mph - 0.00 in Snow Light Snow
10:53 AM 28.9 °F 23.9 °F 26.1 °F 89% 30.30 in 4.0 mi East 4.6 mph - 0.00 in Snow Light Snow
11:49 AM 30.2 °F 25.4 °F 26.6 °F 86% 30.25 in 7.0 mi ESE 4.6 mph - 0.00 in   Overcast
11:53 AM 30.0 °F 24.1 °F 27.0 °F 88% 30.28 in 6.0 mi ESE 5.8 mph - 0.00 in Snow Light Snow
12:13 PM 30.0 °F 24.1 °F 27.0 °F 88% 30.24 in 3.0 mi East 5.8 mph - 0.00 in Snow Light Snow
12:41 PM 30.9 °F 27.5 °F 28.0 °F 89% 30.24 in 2.5 mi East 3.5 mph - 0.00 in Snow Light Snow
12:53 PM 30.9 °F 26.2 °F 27.0 °F 85% 30.26 in 2.5 mi NE 4.6 mph - 0.00 in Snow Light Snow
1:00 PM 30.9 °F 27.5 °F 27.0 °F 85% 30.23 in 2.5 mi NE 3.5 mph - 0.00 in Snow Light Snow
1:13 PM 30.9 °F - 27.0 °F 85% 30.23 in 4.0 mi Calm Calm - 0.00 in Snow Light Snow
1:53 PM 30.9 °F 26.2 °F 28.0 °F 89% 30.24 in 4.0 mi North 4.6 mph - 0.00 in Snow Light Snow
2:38 PM 32.0 °F 27.5 °F 28.0 °F 85% 30.21 in 8.0 mi East 4.6 mph - 0.00 in   Overcast
2:53 PM 32.0 °F 27.5 °F 28.0 °F 85% 30.24 in 9.0 mi ENE 4.6 mph - 0.00 in   Overcast
3:16 PM 32.0 °F 27.5 °F 27.0 °F 82% 30.22 in 10.0 mi East 4.6 mph - N/A   Overcast
3:53 PM 32.0 °F 27.5 °F 27.0 °F 82% 30.25 in 10.0 mi East 4.6 mph - N/A   Overcast
4:53 PM 32.0 °F 28.7 °F 27.0 °F 82% 30.26 in 9.0 mi East 3.5 mph - N/A   Overcast
5:53 PM 30.9 °F 26.2 °F 28.0 °F 89% 30.27 in 8.0 mi ENE 4.6 mph - N/A   Overcast
6:13 PM 30.9 °F 24.3 °F 28.0 °F 89% 30.24 in 8.0 mi ENE 6.9 mph - N/A   Overcast
6:39 PM 30.9 °F 25.2 °F 27.0 °F 85% 30.25 in 8.0 mi ENE 5.8 mph - N/A   Overcast
6:49 PM 30.2 °F 25.4 °F 26.6 °F 86% 30.25 in 8.0 mi ENE 4.6 mph - N/A   Overcast
6:53 PM 30.9 °F 27.5 °F 27.0 °F 85% 30.28 in 8.0 mi ENE 3.5 mph - N/A   Overcast
7:20 PM 30.9 °F 27.5 °F 27.0 °F 85% 30.25 in 8.0 mi East 3.5 mph - N/A   Overcast
7:53 PM 30.9 °F 26.2 °F 28.0 °F 89% 30.28 in 8.0 mi East 4.6 mph - N/A   Overcast
8:08 PM 30.9 °F 25.2 °F 28.0 °F 89% 30.26 in 8.0 mi East 5.8 mph - N/A   Overcast
8:20 PM 30.9 °F 25.2 °F 28.0 °F 89% 30.26 in 7.0 mi ESE 5.8 mph - N/A   Overcast
8:53 PM 30.9 °F 26.2 °F 28.0 °F 89% 30.29 in 6.0 mi East 4.6 mph - N/A   Overcast
9:06 PM 30.9 °F 26.2 °F 28.0 °F 89% 30.27 in 6.0 mi ESE 4.6 mph - N/A   Overcast
9:15 PM 30.9 °F 25.2 °F 28.0 °F 89% 30.27 in 6.0 mi East 5.8 mph - N/A   Overcast
9:53 PM 30.9 °F 26.2 °F 28.0 °F 89% 30.30 in 6.0 mi East 4.6 mph - N/A   Overcast
10:53 PM 30.9 °F 27.5 °F 28.0 °F 89% 30.31 in 5.0 mi ESE 3.5 mph - N/A   Overcast
11:53 PM 30.9 °F 27.5 °F 28.0 °F 89% 30.31 in 5.0 mi ESE 3.5 mph - N/A   Overcast